Cloud_Cover
100 100 100 100 100 89 53 84 100 100 100 100 100 100 100 100 100 100 100 100 100 100 100 100 100 95 100 96 5 1 22 94 100 100 100 100 100 100 100 100 100 100 100 100
100 100 100 100 90 87 100 100 100 100 100 100 100 100 100 6 30 99 100 100 100 47 77 67 99 100 100 100 100 21 5 39 100 100 100 100 100 100 100 100 100 100 100 100
99 98 100 98 90 100 100 100 100 100 100 100 99 100 100 100 2 6 74 100 100 100 100 22 6 93 100 100 100 100 51 9 83 100 100 100 100 100 100 100 100 100 100 100
96 45 96 80 94 95 100 100 100 100 100 100 100 98 100 100 100 51 92 39 100 100 100 100 100 100 96 100 100 100 100 99 67 90 100 100 100 100 100 100 100 100 100 100
98 90 100 100 32 100 12 100 93 84 100 100 100 100 100 100 100 100 100 100 76 100 100 100 100 100 100 100 100 100 100 100 100 100 100 100 100 100 100 100 100 100 100 100
94 87 100 99 98 100 100 100 100 100 100 100 97 90 89 100 100 100 100 100 100 100 99 100 100 100 100 100 100 100 100 100 100 100 100 100 100 100 100 100 100 100 100 100
100 100 100 100 100 100 100 100 100 100 100 100 96 100 10 100 100 100 100 100 100 100 100 94 100 100 100 83 99 100 100 100 100 100 100 100 100 100 100 100 100 100 100 100
100 100 100 100 98 92 100 100 100 100 100 100 100 100 94 100 97 100 100 100 100 100 100 100 100 100 100 100 80 8 91 100 100 100 100 100 100 100 100 100 100 100 100 100
100 100 100 100 100 100 97 100 100 100 100 100 100 100 100 100 100 100 100 100 100 100 100 100 100 100 84 100 100 100 100 100 100 100 100 100 100 100 100 100 100 100 100 100
100 100 100 100 100 100 100 100 100 100 100 100 100 100 100 100 100 100 100 100 100 100 100 100 100 100 100 100 100 100 100 100 100 100 100 100 100 100 100 100 100 100 100 100
100 100 100 100 100 100 100 100 100 100 100 100 100 100 100 100 100 100 100 100 100 100 100 100 100 100 100 100 100 100 100 100 100 100 100 100 100 100 100 100 100 100 100 100
100 100 100 100 100 100 100 100 100 100 100 100 100 100 100 100 100 100 100 100 100 100 100 100 100 100 100 100 100 100 100 100 100 100 100 100 100 100 100 100 100 100 100 100
100 100 100 100 100 100 100 100 100 100 100 100 100 100 100 100 100 100 100 100 100 100 100 90 85 99 100 100 100 100 100 100 100 100 100 100 100 100 99 100 100 100 100 100
100 100 100 100 100 94 100 100 100 100 100 100 100 100 100 100 100 100 100 100 100 100 100 100 100 100 100 99 99 100 100 100 100 100 100 100 100 100 100 100 100 96 100 100
100 94 100 100 100 100 100 100 100 100 100 100 100 100 100 100 100 100 100 100 100 100 100 100 100 100 100 69 50 97 100 100 100 100 100 100 100 100 100 100 100 100 100 100
100 97 100 100 94 100 56 93 100 100 100 100 100 100 100 100 100 100 100 100 100 100 100 100 100 100 100 87 47 50 100 13 93 36 68 100 100 100 100 100 100 100 100 100
100 100 100 100 100 95 6 82 100 100 100 100 100 100 100 100 100 100 100 100 100 100 100 100 100 100 100 100 100 99 97 9 54 46 39 61 100 100 100 100 100 100 100 100
97 94 96 89 88 78 67 62 54 39 54 69 100 100 100 100 100 100 100 100 100 91 60 99 24 100 60 53 30 9 2 2 100 86 99 99 100 100 100 100 100 100 100 100
39 99 100 95 91 18 5 5 20 25 41 6 5 9 57 100 100 100 100 99 61 86 87 78 3 13 11 3 4 50 6 39 100 98 100 100 100 100 100 100 100 100 100 100
100 100 100 98 98 53 0 0 0 1 2 5 5 5 5 4 5 26 27 8 61 95 94 94 55 47 100 97 25 58 66 13 100 100 100 100 100 100 100 100 100 100 100 100
100 100 100 100 100 47 70 21 8 4 2 1 0 0 0 0 0 0 2 2 0 0 0 0 2 5 4 3 6 99 95 54 100 100 100 100 100 100 100 100 100 100 100 100
100 100 100 100 100 99 100 97 67 72 5 5 5 5 0 0 0 0 0 0 0 0 0 0 0 0 0 0 9 100 100 31 100 100 100 100 100 100 100 100 100 100 100 100
100 100 100 100 100 97 18 66 47 5 5 5 5 5 0 3 0 0 0 0 0 0 0 0 3 5 5 8 94 88 100 94 100 100 100 100 100 100 100 100 100 100 100 100
100 100 100 100 100 100 88 36 5 5 5 5 5 7 8 6 5 5 0 0 0 0 0 0 5 5 45 100 78 100 92 100 100 100 100 100 100 100 100 100 100 100 100 100
100 100 100 100 100 100 15 5 5 5 5 5 6 97 82 53 8 5 5 5 5 5 0 5 5 61 100 100 100 100 100 100 100 100 100 100 100 100 100 100 100 100 100 100
63 60 36 34 14 5 4 5 5 5 5 28 100 100 100 100 100 94 76 5 5 14 97 100 100 100 100 100 100 100 100 100 100 100 100 100 100 100 100 100 100 100 100 100